"Sample Date","Sample Time","Sensor Name","Sample Value","Units","Flow Rate","Sample Interval","Sample Volume","Laser Status","Number Channels","Micron Size 0","Counts/Channel 0","Micron Size 1","Counts/Channel 1","Micron Size 2","Counts/Channel 2","Micron Size 3","Counts/Channel 3","Micron Size 4","Counts/Channel 4","Micron Size 5","Counts/Channel 5","Micron Size 6","Counts/Channel 6","Micron Size 7","Counts/Channel 7","Micron Size 8","Counts/Channel 8","Micron Size 9","Counts/Channel 9","Micron Size 10","Counts/Channel 10","Micron Size 11","Counts/Channel 11","Micron Size 12","Counts/Channel 12","Micron Size 13","Counts/Channel 13","Micron Size 14","Counts/Channel 14","Micron Size 15","Counts/Channel 15","Micron Size 16","Counts/Channel 16","Micron Size 17","Counts/Channel 17","Micron Size 18","Counts/Channel 18","Micron Size 19","Counts/Channel 19","Micron Size 20","Counts/Channel 20","Micron Size 21","Counts/Channel 21","Micron Size 22","Counts/Channel 22","Micron Size 23","Counts/Channel 23","Micron Size 24","Counts/Channel 24","Micron Size 25","Counts/Channel 25","Micron Size 26","Counts/Channel 26","Micron Size 27","Counts/Channel 27","Micron Size 28","Counts/Channel 28","Micron Size 29","Counts/Channel 29","Micron Size 30","Counts/Channel 30","Micron Size 31","Counts/Channel 31"
"07/11/06","08:00:04","AMMA06",73832.000,"cc",28269.981,6.00,2826.998,1,6,0.100,40825.000,0.200,26014.000,0.300,5793.000,0.500,734.000,1.000,466.000,5.000,0
"07/11/06","08:00:10","AMMA06",77397.000,"cc",28344.801,6.00,2834.480,1,6,0.100,43343.000,0.200,26384.000,0.300,6161.000,0.500,988.000,1.000,521.000,5.000,0
"07/11/06","08:00:16","AMMA06",71855.000,"cc",28348.324,6.00,2834.833,1,6,0.100,39720.000,0.200,25265.000,0.300,5591.000,0.500,823.000,1.000,456.000,5.000,0
"07/11/06","08:00:22","AMMA06",71440.000,"cc",28297.328,6.00,2829.733,1,6,0.100,39527.000,0.200,25184.000,0.300,5542.000,0.500,739.000,1.000,448.000,5.000,0
"07/11/06","08:00:28","AMMA06",72086.000,"cc",28324.363,6.00,2832.437,1,6,0.100,39284.000,0.200,25403.000,0.300,5792.000,0.500,993.000,1.000,614.000,5.000,0
"07/11/06","08:00:34","AMMA06",72913.000,"cc",28305.877,6.00,2830.588,1,6,0.100,39568.000,0.200,25824.000,0.300,5934.000,0.500,1020.000,1.000,567.000,5.000,0
"07/11/06","08:00:40","AMMA06",72608.000,"cc",28320.732,6.00,2832.074,1,6,0.100,38709.000,0.200,27080.000,0.300,5794.000,0.500,669.000,1.000,356.000,5.000,0
"07/11/06","08:00:46","AMMA06",73296.000,"cc",28317.781,6.00,2831.778,1,6,0.100,38655.000,0.200,27444.000,0.300,6045.000,0.500,746.000,1.000,406.000,5.000,0
"07/11/06","08:00:52","AMMA06",73011.000,"cc",28352.705,6.00,2835.271,1,6,0.100,38287.000,0.200,27969.000,0.300,5796.000,0.500,656.000,1.000,303.000,5.000,0
"07/11/06","08:00:58","AMMA06",74219.000,"cc",28253.148,6.00,2825.315,1,6,0.100,38620.000,0.200,28586.000,0.300,6017.000,0.500,662.000,1.000,334.000,5.000,0
"07/11/06","08:01:04","AMMA06",73855.000,"cc",28275.846,6.00,2827.585,1,6,0.100,38626.000,0.200,28304.000,0.300,5951.000,0.500,647.000,1.000,327.000,5.000,0
"07/11/06","08:01:10","AMMA06",76068.000,"cc",28350.447,6.00,2835.045,1,6,0.100,39554.000,0.200,28810.000,0.300,6273.000,0.500,906.000,1.000,525.000,5.000,0
"07/11/06","08:01:16","AMMA06",74877.000,"cc",28312.656,6.00,2831.266,1,6,0.100,39258.000,0.200,28334.000,0.300,6147.000,0.500,731.000,1.000,407.000,5.000,0
"07/11/06","08:01:22","AMMA06",75652.000,"cc",28289.574,6.00,2828.958,1,6,0.100,39598.000,0.200,28744.000,0.300,6086.000,0.500,777.000,1.000,447.000,5.000,0
"07/11/06","08:01:28","AMMA06",75555.000,"cc",28351.488,6.00,2835.149,1,6,0.100,39286.000,0.200,28969.000,0.300,6154.000,0.500,755.000,1.000,391.000,5.000,0
"07/11/06","08:01:34","AMMA06",77364.000,"cc",28368.627,6.00,2836.863,1,6,0.100,39967.000,0.200,29386.000,0.300,6421.000,0.500,1006.000,1.000,584.000,5.000,0
"07/11/06","08:01:40","AMMA06",75245.000,"cc",28282.584,6.00,2828.259,1,6,0.100,39143.000,0.200,29098.000,0.300,5938.000,0.500,731.000,1.000,335.000,5.000,0
"07/11/06","08:01:46","AMMA06",75049.000,"cc",28295.746,6.00,2829.575,1,6,0.100,39230.000,0.200,28812.000,0.300,6054.000,0.500,655.000,1.000,298.000,5.000,0
"07/11/06","08:01:52","AMMA06",75174.000,"cc",28313.119,6.00,2831.312,1,6,0.100,39618.000,0.200,28721.000,0.300,5884.000,0.500,622.000,1.000,329.000,5.000,0
"07/11/06","08:01:58","AMMA06",75300.000,"cc",28334.090,6.00,2833.409,1,6,0.100,39047.000,0.200,28849.000,0.300,6120.000,0.500,802.000,1.000,482.000,5.000,0
"07/11/06","08:02:04","AMMA06",76997.000,"cc",28378.719,6.00,2837.872,1,6,0.100,40845.000,0.200,28697.000,0.300,6159.000,0.500,867.000,1.000,429.000,5.000,0
"07/11/06","08:02:10","AMMA06",73892.000,"cc",28320.010,6.00,2832.001,1,6,0.100,38903.000,0.200,28138.000,0.300,5902.000,0.500,671.000,1.000,278.000,5.000,0
"07/11/06","08:02:16","AMMA06",77641.000,"cc",28323.123,6.00,2832.313,1,6,0.100,41479.000,0.200,28851.000,0.300,6012.000,0.500,865.000,1.000,434.000,5.000,0
"07/11/06","08:02:22","AMMA06",75178.000,"cc",28312.627,6.00,2831.263,1,6,0.100,40302.000,0.200,28085.000,0.300,5751.000,0.500,679.000,1.000,361.000,5.000,0
"07/11/06","08:02:28","AMMA06",73354.000,"cc",28329.588,6.00,2832.959,1,6,0.100,39016.000,0.200,27758.000,0.300,5659.000,0.500,633.000,1.000,288.000,5.000,0
"07/11/06","08:02:34","AMMA06",73536.000,"cc",28272.383,6.00,2827.239,1,6,0.100,38887.000,0.200,27964.000,0.300,5706.000,0.500,636.000,1.000,343.000,5.000,0
"07/11/06","08:02:40","AMMA06",75016.000,"cc",28325.971,6.00,2832.597,1,6,0.100,39858.000,0.200,28141.000,0.300,5913.000,0.500,712.000,1.000,392.000,5.000,0
"07/11/06","08:02:46","AMMA06",75428.000,"cc",28279.897,6.00,2827.990,1,6,0.100,39944.000,0.200,28590.000,0.300,5773.000,0.500,753.000,1.000,368.000,5.000,0
"07/11/06","08:02:52","AMMA06",74627.000,"cc",28342.627,6.00,2834.263,1,6,0.100,40185.000,0.200,27704.000,0.300,5719.000,0.500,683.000,1.000,336.000,5.000,0
"07/11/06","08:02:58","AMMA06",75400.000,"cc",28342.881,6.00,2834.288,1,6,0.100,40599.000,0.200,28205.000,0.300,5715.000,0.500,596.000,1.000,285.000,5.000,0
"07/11/06","08:03:04","AMMA06",74283.000,"cc",28255.137,6.00,2825.514,1,6,0.100,40089.000,0.200,27921.000,0.300,5458.000,0.500,538.000,1.000,277.000,5.000,0
"07/11/06","08:03:10","AMMA06",75162.000,"cc",28319.971,6.00,2831.997,1,6,0.100,40192.000,0.200,27888.000,0.300,5846.000,0.500,802.000,1.000,434.000,5.000,0
"07/11/06","08:03:16","AMMA06",76309.000,"cc",28341.834,6.00,2834.184,1,6,0.100,40855.000,0.200,28140.000,0.300,5962.000,0.500,866.000,1.000,485.000,5.000,1.000
"07/11/06","08:03:22","AMMA06",76955.000,"cc",28348.057,6.00,2834.806,1,6,0.100,41109.000,0.200,28296.000,0.300,6022.000,0.500,955.000,1.000,573.000,5.000,0
"07/11/06","08:03:28","AMMA06",76669.000,"cc",28307.330,6.00,2830.733,1,6,0.100,41079.000,0.200,28232.000,0.300,6028.000,0.500,866.000,1.000,464.000,5.000,0
"07/11/06","08:03:34","AMMA06",76484.000,"cc",28293.070,6.00,2829.307,1,6,0.100,41379.000,0.200,28140.000,0.300,5749.000,0.500,808.000,1.000,407.000,5.000,1.000
"07/11/06","08:03:40","AMMA06",74919.000,"cc",28290.338,6.00,2829.034,1,6,0.100,40361.000,0.200,27867.000,0.300,5712.000,0.500,665.000,1.000,314.000,5.000,0
"07/11/06","08:03:46","AMMA06",80617.000,"cc",28279.070,6.00,2827.907,1,6,0.100,43369.000,0.200,29205.000,0.300,6259.000,0.500,1105.000,1.000,679.000,5.000,0
"07/11/06","08:03:52","AMMA06",89627.000,"cc",28346.816,6.00,2834.682,1,6,0.100,50538.000,0.200,30376.000,0.300,6901.000,0.500,1163.000,1.000,649.000,5.000,0
"07/11/06","08:03:58","AMMA06",82746.000,"cc",28298.365,6.00,2829.837,1,6,0.100,44752.000,0.200,29151.000,0.300,6731.000,0.500,1283.000,1.000,829.000,5.000,0
"07/11/06","08:04:04","AMMA06",75897.000,"cc",28328.520,6.00,2832.852,1,6,0.100,41042.000,0.200,27975.000,0.300,5778.000,0.500,716.000,1.000,386.000,5.000,0
"07/11/06","08:04:10","AMMA06",73950.000,"cc",28278.580,6.00,2827.858,1,6,0.100,39599.000,0.200,27722.000,0.300,5644.000,0.500,640.000,1.000,345.000,5.000,0
"07/11/06","08:04:16","AMMA06",78437.000,"cc",28330.586,6.00,2833.059,1,6,0.100,42681.000,0.200,28541.000,0.300,5999.000,0.500,792.000,1.000,424.000,5.000,0
"07/11/06","08:04:22","AMMA06",75358.000,"cc",28339.219,6.00,2833.922,1,6,0.100,40795.000,0.200,27954.000,0.300,5658.000,0.500,641.000,1.000,310.000,5.000,0
"07/11/06","08:04:28","AMMA06",72683.000,"cc",28281.377,6.00,2828.138,1,6,0.100,38810.000,0.200,27464.000,0.300,5599.000,0.500,547.000,1.000,263.000,5.000,0
"07/11/06","08:04:34","AMMA06",72791.000,"cc",28323.385,6.00,2832.339,1,6,0.100,38767.000,0.200,27418.000,0.300,5561.000,0.500,688.000,1.000,357.000,5.000,0
"07/11/06","08:04:40","AMMA06",72358.000,"cc",28329.148,6.00,2832.915,1,6,0.100,38599.000,0.200,27389.000,0.300,5525.000,0.500,573.000,1.000,272.000,5.000,0
"07/11/06","08:04:46","AMMA06",72464.000,"cc",28322.611,6.00,2832.261,1,6,0.100,38445.000,0.200,27480.000,0.300,5647.000,0.500,605.000,1.000,287.000,5.000,0
"07/11/06","08:04:52","AMMA06",72586.000,"cc",28347.705,6.00,2834.771,1,6,0.100,38919.000,0.200,27272.000,0.300,5579.000,0.500,563.000,1.000,253.000,5.000,0
"07/11/06","08:04:58","AMMA06",72034.000,"cc",28318.023,6.00,2831.803,1,6,0.100,38593.000,0.200,27232.000,0.300,5432.000,0.500,535.000,1.000,242.000,5.000,0
"07/11/06","08:05:04","AMMA06",72519.000,"cc",28365.691,6.00,2836.569,1,6,0.100,39000.000,0.200,26995.000,0.300,5600.000,0.500,628.000,1.000,296.000,5.000,0
"07/11/06","08:05:10","AMMA06",74274.000,"cc",28307.051,6.00,2830.705,1,6,0.100,39628.000,0.200,27443.000,0.300,5880.000,0.500,844.000,1.000,479.000,5.000,0
"07/11/06","08:05:16","AMMA06",75832.000,"cc",28307.313,6.00,2830.731,1,6,0.100,40140.000,0.200,27948.000,0.300,6148.000,0.500,994.000,1.000,602.000,5.000,0
"07/11/06","08:05:22","AMMA06",73889.000,"cc",28349.561,6.00,2834.956,1,6,0.100,39391.000,0.200,27613.000,0.300,5760.000,0.500,712.000,1.000,413.000,5.000,0
"07/11/06","08:05:28","AMMA06",73350.000,"cc",28268.748,6.00,2826.875,1,6,0.100,39202.000,0.200,27462.000,0.300,5633.000,0.500,675.000,1.000,378.000,5.000,0
"07/11/06","08:05:34","AMMA06",72626.000,"cc",28311.762,6.00,2831.176,1,6,0.100,38768.000,0.200,27415.000,0.300,5506.000,0.500,633.000,1.000,304.000,5.000,0
"07/11/06","08:05:40","AMMA06",75717.000,"cc",28298.172,6.00,2829.817,1,6,0.100,39401.000,0.200,28345.000,0.300,6298.000,0.500,1060.000,1.000,613.000,5.000,0
"07/11/06","08:05:46","AMMA06",76641.000,"cc",28331.563,6.00,2833.157,1,6,0.100,40583.000,0.200,28101.000,0.300,6262.000,0.500,1026.000,1.000,669.000,5.000,0
"07/11/06","08:05:52","AMMA06",73602.000,"cc",28300.742,6.00,2830.075,1,6,0.100,38935.000,0.200,27805.000,0.300,5867.000,0.500,666.000,1.000,329.000,5.000,0
"07/11/06","08:05:58","AMMA06",74149.000,"cc",28340.449,6.00,2834.045,1,6,0.100,39320.000,0.200,27761.000,0.300,5838.000,0.500,792.000,1.000,438.000,5.000,0
"07/11/06","08:06:04","AMMA06",73830.000,"cc",28329.725,6.00,2832.973,1,6,0.100,39079.000,0.200,27642.000,0.300,5860.000,0.500,835.000,1.000,414.000,5.000,0
"07/11/06","08:06:10","AMMA06",73997.000,"cc",28280.938,6.00,2828.094,1,6,0.100,39063.000,0.200,27957.000,0.300,5771.000,0.500,761.000,1.000,445.000,5.000,0
"07/11/06","08:06:16","AMMA06",74232.000,"cc",28305.674,6.00,2830.568,1,6,0.100,39105.000,0.200,27948.000,0.300,5897.000,0.500,808.000,1.000,474.000,5.000,0
"07/11/06","08:06:22","AMMA06",76866.000,"cc",28311.953,6.00,2831.196,1,6,0.100,40415.000,0.200,28467.000,0.300,6203.000,0.500,1122.000,1.000,659.000,5.000,0
"07/11/06","08:06:28","AMMA06",73547.000,"cc",28336.766,6.00,2833.677,1,6,0.100,39020.000,0.200,27703.000,0.300,5714.000,0.500,705.000,1.000,405.000,5.000,0
"07/11/06","08:06:34","AMMA06",74270.000,"cc",28346.383,6.00,2834.638,1,6,0.100,39800.000,0.200,27535.000,0.300,5723.000,0.500,795.000,1.000,417.000,5.000,0
"07/11/06","08:06:40","AMMA06",72828.000,"cc",28341.391,6.00,2834.139,1,6,0.100,39001.000,0.200,27182.000,0.300,5552.000,0.500,677.000,1.000,416.000,5.000,0
"07/11/06","08:06:46","AMMA06",72134.000,"cc",28310.184,6.00,2831.019,1,6,0.100,38783.000,0.200,26981.000,0.300,5457.000,0.500,617.000,1.000,296.000,5.000,0
"07/11/06","08:06:52","AMMA06",72066.000,"cc",28310.193,6.00,2831.020,1,6,0.100,38424.000,0.200,26983.000,0.300,5734.000,0.500,622.000,1.000,303.000,5.000,0
"07/11/06","08:06:58","AMMA06",73716.000,"cc",28301.363,6.00,2830.137,1,6,0.100,39238.000,0.200,27408.000,0.300,5810.000,0.500,830.000,1.000,430.000,5.000,0
"07/11/06","08:07:04","AMMA06",72133.000,"cc",28311.123,6.00,2831.113,1,6,0.100,38539.000,0.200,26909.000,0.300,5542.000,0.500,713.000,1.000,430.000,5.000,0
"07/11/06","08:07:10","AMMA06",73014.000,"cc",28321.051,6.00,2832.105,1,6,0.100,39092.000,0.200,27208.000,0.300,5657.000,0.500,717.000,1.000,340.000,5.000,0
"07/11/06","08:07:16","AMMA06",73962.000,"cc",28265.186,6.00,2826.519,1,6,0.100,39435.000,0.200,27283.000,0.300,5936.000,0.500,814.000,1.000,494.000,5.000,0
"07/11/06","08:07:22","AMMA06",73608.000,"cc",28348.490,6.00,2834.849,1,6,0.100,39514.000,0.200,27285.000,0.300,5668.000,0.500,724.000,1.000,417.000,5.000,0
"07/11/06","08:07:28","AMMA06",73922.000,"cc",28364.707,6.00,2836.471,1,6,0.100,39557.000,0.200,27489.000,0.300,5708.000,0.500,755.000,1.000,413.000,5.000,0
"07/11/06","08:07:34","AMMA06",74975.000,"cc",28262.852,6.00,2826.285,1,6,0.100,40309.000,0.200,27612.000,0.300,5803.000,0.500,756.000,1.000,494.000,5.000,1.000
"07/11/06","08:07:40","AMMA06",76481.000,"cc",28322.846,6.00,2832.285,1,6,0.100,40533.000,0.200,27820.000,0.300,6320.000,0.500,1147.000,1.000,661.000,5.000,0
"07/11/06","08:07:46","AMMA06",78510.000,"cc",28362.154,6.00,2836.216,1,6,0.100,41531.000,0.200,28396.000,0.300,6524.000,0.500,1252.000,1.000,807.000,5.000,0
"07/11/06","08:07:52","AMMA06",74250.000,"cc",28303.131,6.00,2830.313,1,6,0.100,39746.000,0.200,27817.000,0.300,5652.000,0.500,682.000,1.000,352.000,5.000,1.000
"07/11/06","08:07:58","AMMA06",75936.000,"cc",28292.047,6.00,2829.205,1,6,0.100,40366.000,0.200,28306.000,0.300,5987.000,0.500,836.000,1.000,441.000,5.000,0
"07/11/06","08:08:04","AMMA06",75302.000,"cc",28299.772,6.00,2829.977,1,6,0.100,39985.000,0.200,28380.000,0.300,5888.000,0.500,704.000,1.000,345.000,5.000,0
"07/11/06","08:08:10","AMMA06",75860.000,"cc",28348.844,6.00,2834.885,1,6,0.100,40369.000,0.200,28732.000,0.300,5748.000,0.500,654.000,1.000,357.000,5.000,0
"07/11/06","08:08:16","AMMA06",77317.000,"cc",28322.135,6.00,2832.214,1,6,0.100,40314.000,0.200,28840.000,0.300,6430.000,0.500,1063.000,1.000,670.000,5.000,0
"07/11/06","08:08:22","AMMA06",77556.000,"cc",28353.619,6.00,2835.362,1,6,0.100,40890.000,0.200,28884.000,0.300,6316.000,0.500,895.000,1.000,571.000,5.000,0
"07/11/06","08:08:28","AMMA06",76314.000,"cc",28347.793,6.00,2834.780,1,6,0.100,40396.000,0.200,28637.000,0.300,6067.000,0.500,817.000,1.000,397.000,5.000,0
"07/11/06","08:08:34","AMMA06",76018.000,"cc",28322.332,6.00,2832.233,1,6,0.100,40252.000,0.200,28717.000,0.300,5841.000,0.500,810.000,1.000,398.000,5.000,0
"07/11/06","08:08:40","AMMA06",78858.000,"cc",28290.797,6.00,2829.080,1,6,0.100,41011.000,0.200,29153.000,0.300,6614.000,0.500,1308.000,1.000,772.000,5.000,0
"07/11/06","08:08:46","AMMA06",75810.000,"cc",28242.254,6.00,2824.226,1,6,0.100,39828.000,0.200,28795.000,0.300,6016.000,0.500,779.000,1.000,392.000,5.000,0
"07/11/06","08:08:52","AMMA06",79213.000,"cc",28340.404,6.00,2834.041,1,6,0.100,40978.000,0.200,29630.000,0.300,6586.000,0.500,1233.000,1.000,786.000,5.000,0
"07/11/06","08:08:58","AMMA06",75823.000,"cc",28295.897,6.00,2829.590,1,6,0.100,39900.000,0.200,28935.000,0.300,5928.000,0.500,718.000,1.000,342.000,5.000,0
"07/11/06","08:09:04","AMMA06",76583.000,"cc",28309.313,6.00,2830.931,1,6,0.100,40223.000,0.200,28899.000,0.300,6087.000,0.500,887.000,1.000,487.000,5.000,0
"07/11/06","08:09:10","AMMA06",78842.000,"cc",28389.693,6.00,2838.970,1,6,0.100,41793.000,0.200,29263.000,0.300,6250.000,0.500,971.000,1.000,565.000,5.000,0
"07/11/06","08:09:16","AMMA06",76241.000,"cc",28378.106,6.00,2837.811,1,6,0.100,40698.000,0.200,28630.000,0.300,5779.000,0.500,721.000,1.000,413.000,5.000,0
"07/11/06","08:09:22","AMMA06",75483.000,"cc",28251.375,6.00,2825.138,1,6,0.100,39803.000,0.200,28866.000,0.300,5857.000,0.500,632.000,1.000,325.000,5.000,0
"07/11/06","08:09:28","AMMA06",75476.000,"cc",28347.188,6.00,2834.719,1,6,0.100,39670.000,0.200,28967.000,0.300,5836.000,0.500,665.000,1.000,338.000,5.000,0
"07/11/06","08:09:34","AMMA06",78028.000,"cc",28304.379,6.00,2830.438,1,6,0.100,41338.000,0.200,29362.000,0.300,6085.000,0.500,806.000,1.000,437.000,5.000,0
"07/11/06","08:09:40","AMMA06",78919.000,"cc",28271.959,6.00,2827.196,1,6,0.100,41795.000,0.200,29568.000,0.300,6254.000,0.500,813.000,1.000,488.000,5.000,1.000
"07/11/06","08:09:46","AMMA06",80205.000,"cc",28274.820,6.00,2827.482,1,6,0.100,43368.000,0.200,29584.000,0.300,6064.000,0.500,760.000,1.000,429.000,5.000,0
"07/11/06","08:09:52","AMMA06",76726.000,"cc",28366.508,6.00,2836.651,1,6,0.100,40254.000,0.200,29502.000,0.300,5916.000,0.500,692.000,1.000,362.000,5.000,0
"07/11/06","08:09:58","AMMA06",75468.000,"cc",28347.197,6.00,2834.720,1,6,0.100,39579.000,0.200,28990.000,0.300,5955.000,0.500,601.000,1.000,343.000,5.000,0
"07/11/06","08:10:04","AMMA06",79779.000,"cc",28301.725,6.00,2830.173,1,6,0.100,42175.000,0.200,30177.000,0.300,6198.000,0.500,802.000,1.000,427.000,5.000,0
"07/11/06","08:10:10","AMMA06",77855.000,"cc",28287.174,6.00,2828.718,1,6,0.100,40511.000,0.200,30100.000,0.300,6258.000,0.500,670.000,1.000,316.000,5.000,0
"07/11/06","08:10:16","AMMA06",77486.000,"cc",28357.729,6.00,2835.773,1,6,0.100,40693.000,0.200,29808.000,0.300,5972.000,0.500,713.000,1.000,300.000,5.000,0
"07/11/06","08:10:22","AMMA06",76640.000,"cc",28325.367,6.00,2832.537,1,6,0.100,39976.000,0.200,29708.000,0.300,6015.000,0.500,646.000,1.000,295.000,5.000,0
"07/11/06","08:10:28","AMMA06",76510.000,"cc",28296.434,6.00,2829.644,1,6,0.100,39573.000,0.200,30139.000,0.300,5940.000,0.500,573.000,1.000,285.000,5.000,0
"07/11/06","08:10:34","AMMA06",76442.000,"cc",28323.955,6.00,2832.396,1,6,0.100,39453.000,0.200,30109.000,0.300,6016.000,0.500,603.000,1.000,261.000,5.000,0
"07/11/06","08:10:40","AMMA06",77420.000,"cc",28309.121,6.00,2830.912,1,6,0.100,39945.000,0.200,30315.000,0.300,6150.000,0.500,665.000,1.000,344.000,5.000,1.000
"07/11/06","08:10:46","AMMA06",77768.000,"cc",28303.416,6.00,2830.342,1,6,0.100,39916.000,0.200,30327.000,0.300,6276.000,0.500,814.000,1.000,435.000,5.000,0
"07/11/06","08:10:52","AMMA06",76834.000,"cc",28324.666,6.00,2832.467,1,6,0.100,39715.000,0.200,29995.000,0.300,6094.000,0.500,665.000,1.000,365.000,5.000,0
"07/11/06","08:10:58","AMMA06",77568.000,"cc",28298.262,6.00,2829.826,1,6,0.100,40231.000,0.200,30019.000,0.300,6158.000,0.500,763.000,1.000,397.000,5.000,0
"07/11/06","08:11:04","AMMA06",76589.000,"cc",28348.816,6.00,2834.882,1,6,0.100,39752.000,0.200,29956.000,0.300,5999.000,0.500,617.000,1.000,265.000,5.000,0
"07/11/06","08:11:10","AMMA06",76543.000,"cc",28361.469,6.00,2836.147,1,6,0.100,39370.000,0.200,30177.000,0.300,6067.000,0.500,642.000,1.000,287.000,5.000,0
"07/11/06","08:11:16","AMMA06",79260.000,"cc",28281.494,6.00,2828.150,1,6,0.100,40698.000,0.200,30474.000,0.300,6565.000,0.500,972.000,1.000,551.000,5.000,0
"07/11/06","08:11:22","AMMA06",76563.000,"cc",28272.994,6.00,2827.300,1,6,0.100,39719.000,0.200,29827.000,0.300,6023.000,0.500,657.000,1.000,337.000,5.000,0
"07/11/06","08:11:28","AMMA06",75576.000,"cc",28307.559,6.00,2830.756,1,6,0.100,39579.000,0.200,29326.000,0.300,5823.000,0.500,586.000,1.000,262.000,5.000,0
"07/11/06","08:11:34","AMMA06",74406.000,"cc",28292.438,6.00,2829.244,1,6,0.100,38949.000,0.200,29004.000,0.300,5724.000,0.500,484.000,1.000,245.000,5.000,0
"07/11/06","08:11:40","AMMA06",74512.000,"cc",28345.350,6.00,2834.535,1,6,0.100,38808.000,0.200,29198.000,0.300,5691.000,0.500,552.000,1.000,263.000,5.000,0
"07/11/06","08:11:46","AMMA06",74819.000,"cc",28324.957,6.00,2832.496,1,6,0.100,39206.000,0.200,29014.000,0.300,5660.000,0.500,628.000,1.000,311.000,5.000,0
"07/11/06","08:11:52","AMMA06",74981.000,"cc",28373.377,6.00,2837.338,1,6,0.100,39209.000,0.200,29017.000,0.300,5922.000,0.500,575.000,1.000,258.000,5.000,0
"07/11/06","08:11:58","AMMA06",76725.000,"cc",28321.147,6.00,2832.115,1,6,0.100,39909.000,0.200,29355.000,0.300,6209.000,0.500,803.000,1.000,449.000,5.000,0
"07/11/06","08:12:04","AMMA06",75589.000,"cc",28266.580,6.00,2826.658,1,6,0.100,39390.000,0.200,29215.000,0.300,6037.000,0.500,637.000,1.000,309.000,5.000,1.000
"07/11/06","08:12:10","AMMA06",75314.000,"cc",28271.420,6.00,2827.142,1,6,0.100,39849.000,0.200,28786.000,0.300,5817.000,0.500,585.000,1.000,277.000,5.000,0
"07/11/06","08:12:16","AMMA06",74623.000,"cc",28378.133,6.00,2837.814,1,6,0.100,39210.000,0.200,28836.000,0.300,5696.000,0.500,572.000,1.000,309.000,5.000,0
"07/11/06","08:12:22","AMMA06",74012.000,"cc",28339.512,6.00,2833.951,1,6,0.100,38702.000,0.200,28836.000,0.300,5667.000,0.500,523.000,1.000,284.000,5.000,0
"07/11/06","08:12:28","AMMA06",74384.000,"cc",28259.779,6.00,2825.978,1,6,0.100,39131.000,0.200,28716.000,0.300,5676.000,0.500,599.000,1.000,262.000,5.000,0
"07/11/06","08:12:34","AMMA06",74070.000,"cc",28318.777,6.00,2831.878,1,6,0.100,39177.000,0.200,28430.000,0.300,5667.000,0.500,544.000,1.000,252.000,5.000,0
"07/11/06","08:12:40","AMMA06",74598.000,"cc",28364.580,6.00,2836.458,1,6,0.100,39320.000,0.200,28867.000,0.300,5612.000,0.500,577.000,1.000,221.000,5.000,1.000
"07/11/06","08:12:46","AMMA06",74051.000,"cc",28328.979,6.00,2832.898,1,6,0.100,38902.000,0.200,28682.000,0.300,5633.000,0.500,548.000,1.000,286.000,5.000,0
"07/11/06","08:12:52","AMMA06",74362.000,"cc",28311.186,6.00,2831.119,1,6,0.100,39292.000,0.200,28517.000,0.300,5702.000,0.500,569.000,1.000,282.000,5.000,0
"07/11/06","08:12:58","AMMA06",75584.000,"cc",28318.168,6.00,2831.817,1,6,0.100,39490.000,0.200,28977.000,0.300,5969.000,0.500,745.000,1.000,403.000,5.000,0
"07/11/06","08:13:04","AMMA06",75079.000,"cc",28301.854,6.00,2830.186,1,6,0.100,39334.000,0.200,28707.000,0.300,5928.000,0.500,698.000,1.000,412.000,5.000,0
"07/11/06","08:13:10","AMMA06",74183.000,"cc",28277.832,6.00,2827.783,1,6,0.100,39094.000,0.200,28600.000,0.300,5568.000,0.500,591.000,1.000,330.000,5.000,0
"07/11/06","08:13:16","AMMA06",74255.000,"cc",28354.529,6.00,2835.453,1,6,0.100,39146.000,0.200,28555.000,0.300,5612.000,0.500,627.000,1.000,315.000,5.000,0
"07/11/06","08:13:22","AMMA06",77200.000,"cc",28371.541,6.00,2837.154,1,6,0.100,40457.000,0.200,28843.000,0.300,6285.000,0.500,1068.000,1.000,546.000,5.000,1.000
"07/11/06","08:13:28","AMMA06",76499.000,"cc",28311.598,6.00,2831.160,1,6,0.100,40060.000,0.200,28865.000,0.300,6151.000,0.500,910.000,1.000,513.000,5.000,0
"07/11/06","08:13:34","AMMA06",75930.000,"cc",28274.697,6.00,2827.470,1,6,0.100,40125.000,0.200,28600.000,0.300,6016.000,0.500,761.000,1.000,428.000,5.000,0
"07/11/06","08:13:40","AMMA06",76598.000,"cc",28298.904,6.00,2829.891,1,6,0.100,40576.000,0.200,28686.000,0.300,5940.000,0.500,892.000,1.000,504.000,5.000,0
"07/11/06","08:13:46","AMMA06",76217.000,"cc",28293.965,6.00,2829.397,1,6,0.100,40180.000,0.200,28786.000,0.300,5998.000,0.500,815.000,1.000,438.000,5.000,0
"07/11/06","08:13:52","AMMA06",75370.000,"cc",28349.049,6.00,2834.905,1,6,0.100,39955.000,0.200,28367.000,0.300,5785.000,0.500,799.000,1.000,464.000,5.000,0
"07/11/06","08:13:58","AMMA06",75417.000,"cc",28343.082,6.00,2834.308,1,6,0.100,39968.000,0.200,28334.000,0.300,5959.000,0.500,728.000,1.000,428.000,5.000,0
"07/11/06","08:14:04","AMMA06",74437.000,"cc",28297.191,6.00,2829.719,1,6,0.100,39725.000,0.200,28294.000,0.300,5564.000,0.500,597.000,1.000,257.000,5.000,0
"07/11/06","08:14:10","AMMA06",74683.000,"cc",28351.406,6.00,2835.141,1,6,0.100,39645.000,0.200,28392.000,0.300,5688.000,0.500,654.000,1.000,304.000,5.000,0
"07/11/06","08:14:16","AMMA06",74367.000,"cc",28270.645,6.00,2827.065,1,6,0.100,39860.000,0.200,28000.000,0.300,5621.000,0.500,578.000,1.000,308.000,5.000,0